Home > Time Zones > World Clock > Weather > Japan > Kobe > Past weeks

Flag for Japan Weather past 2 weeks in Kobe, Japan

Now
81 °F

Partly sunny.


Feels Like: 82 °F
Forecast: 68 / 73 °F
Wind: 2 mph from North

Location: Osaka International Airport

Current Time: Jul 3, 2015 at 12:25:38 PM

Latest Report: Jul 3, 2015 at 12:00 PM


Visibility: N/A

Pressure: 29.65 "Hg

Humidity: 54%

Dew point: 63 °F

Location of KobeLocation

Historic Weather in Kobe — Graph

°F

Kobe temperature yesterday

Maximum temperature yesterday: 82 °F (at 1:00 PM)
Minimum temperature yesterday: 72 °F (at 5:00 AM)
Average temperature yesterday: 78 °F

Past Weeks' High & Low Weather Summary

 TemperatureHumidityPressure
High88 °F (Jun 24, 1:00 PM)100% (Jul 1, 8:00 AM)29.89 "Hg (Jul 1, 8:00 AM)
Low64 °F (Jun 19, 5:00 AM)35% (Jun 29, 1:00 PM)29.21 "Hg (Jul 1, 9:00 AM)
Average76 °F68%29.68 "Hg
* Reported Jun 18 11:00 AM — Jul 3 11:00 AM, Kobe, Weather by CustomWeather, © 2015

Note: Actual official high and low records may vary slightly from our data, if they occured in-between our weather recording intervals... More about our weather records

Advertising

Kobe weather history for previous 24 hours

 ConditionsComfort  
Time TempWeatherWind HumidityBarometerVisibility
11:00 AM
Fri, Jul 3
79 °FBroken clouds.3 mph54%29.68 "HgN/A
10:00 AM77 °FPartly sunny.2 mph61%29.68 "HgN/A
9:00 AM75 °FBroken clouds.2 mph69%29.68 "HgN/A
8:00 AM75 °FBroken clouds.3 mph74%29.68 "HgN/A
7:00 AM72 °FBroken clouds.3 mph83%29.68 "HgN/A
6:00 AM72 °FBroken clouds.6 mph88%29.65 "HgN/A
5:00 AM72 °FLight rain. Partly sunny.No wind88%29.62 "HgN/A
8:00 PM
Thu, Jul 2
75 °FPartly cloudy.7 mph78%29.68 "HgN/A
7:00 PM77 °FBroken clouds.8 mph65%29.62 "HgN/A
6:00 PM79 °FPartly sunny.7 mph61%29.62 "HgN/A
5:00 PM79 °FBroken clouds.9 mph61%29.62 "HgN/A
4:00 PM81 °FBroken clouds.8 mph54%29.59 "HgN/A
3:00 PM82 °FBroken clouds.9 mph48%29.59 "HgN/A
2:00 PM82 °FPartly sunny.10 mph51%29.59 "HgN/A
1:00 PM82 °FPartly sunny.8 mph55%29.59 "HgN/A
12:00 PM81 °FPartly sunny.8 mph58%29.59 "HgN/A
Weather by CustomWeather, © 2015

See weather overviewHow to use our weather pages